Accueil
METAR-TAF:

METAR-TAF

Aéroports :

Santa Maria di Leuca

Castrignano del Capo, Italie

latitude: 39-49N, longitude: 018-21E, altitude: 104 m

Observation

Le bulletin a été fait il y a 1 heure et 22 minutes, à 16:55 UTC
Vent 14 kt de sud/sud-ouest
Température 16°C
Humidité 72%
Pression 1010 hPa
Visibilité 10 km ou plus
Nuages épars à une hauteur de 2000 ft

METAR: LIBY 051655Z 21014KT 9999 SCT020 16/11 Q1010 RMK BKN SCT080 QUK / QUL / VIS MAR 10 KM VIS MIN 9999

Heure: 19:17 (18:17 UTC)


TAF: absent

Observations et prévisions météorologiques de plus de 4000 aéroports (messages METAR et TAF).

Les stations disponibles sont représentées par des disques jaunes et rouges sur la carte.

Passer la souris dessus pour voir le nom de la station.

Cliquer dessus pour voir les observations et prévisions météorologiques.

Pour changer de carte: cliquez sur les boutons verts avec une croix noire pour zoomer, sur le bouton vert avec un tiret pour effectuer un zoom arrière, ou sur les flèches vertes pour les cartes adjacentes.


METAR-TAF: